Printer-friendly version
Follow the MPC on Twitter Follow the MPC on Facebook The MPC blog
Minor Planet Center

MPEC 2010-N06 : 2010 NB

The following Minor Planet Electronic Circular may be linked-to from your own Web pages, but must not otherwise be redistributed electronically.

A form allowing access to any MPEC is at the bottom of this page.


Read MPEC 2010-N05 Read MPEC 2010-N07


M.P.E.C. 2010-N06                                Issued 2010 July 3, 03:05 UT

     The Minor Planet Electronic Circulars contain information on unusual
         minor planets and routine data on comets.  They are published
   on behalf of Commission 20 of the International Astronomical Union by the
          Minor Planet Center, Smithsonian Astrophysical Observatory,
                          Cambridge, MA 02138, U.S.A.

             Prepared using the Tamkin Foundation Computer Network

                              MPC@CFA.HARVARD.EDU
       URL http://www.minorplanetcenter.org/iau/mpc.html  ISSN 1523-6714

                                    2010 NB

Observations:
     K10N00B* C2010 07 01.27574 18 19 33.11 +53 10 51.4          19.0   EN006704
     K10N00B  C2010 07 01.28631 18 19 20.16 +53 15 27.0          19.7   EN006704
     K10N00B  C2010 07 01.29682 18 19 07.19 +53 20 01.3          19.8   EN006704
     K10N00B  C2010 07 01.30742 18 18 54.22 +53 24 35.1          19.7   EN006704
     K10N00B  C2010 07 01.31793 18 18 41.43 +53 29 07.5          20.0   EN006704
     K10N00B KC2010 07 02.15653 18 01 38.98 +59 04 21.0          20.0 C EN006H36
     K10N00B KC2010 07 02.16179 18 01 31.23 +59 06 21.3          19.5 C EN006H36
     K10N00B KC2010 07 02.18210 18 01 02.68 +59 13 52.3          18.7 C EN006H36
     K10N00B KC2010 07 02.18738 18 00 54.98 +59 15 50.1          19.5 C EN006H36
     K10N00B  C2010 07 02.24917817 59 23.42 +59 38 18.8          19.8 V EN006H21
     K10N00B  C2010 07 02.25001317 59 22.21 +59 38 37.0          19.4 V EN006H21
     K10N00B  C2010 07 02.25111617 59 20.60 +59 39 00.7          19.4 V EN006H21
     K10N00B KC2010 07 03.07463 17 39 03.72 +64 10 33.9                 EN006J95
     K10N00B KC2010 07 03.07862 17 38 57.12 +64 11 43.7                 EN006J95
     K10N00B KC2010 07 03.08337 17 38 49.15 +64 13 07.9          19.5 R EN006J95

Observer details:
704 Lincoln Laboratory ETS, New Mexico.  Observers M. Blythe, G. Spitz,
    R. Brungard, J. Paige, P. Festler.  1.0-m f/2.15 reflector + CCD.
H21 Astronomical Research Observatory, Westfield.  Observer R. Holmes.
    Measurer S. Foglia.
H36 Sandlot Observatory, Scranton.  Observer G. Hug.  0.56-m reflector + CCD.
J95 Great Shefford.  Observer P. Birtwhistle.  0.40-m f/6.0 Schmidt-Cassegrain
    + CCD.

Orbital elements:
2010 NB                                                  Earth MOID = 0.0461 AU
Epoch 2010 July 23.0 TT = JDT 2455400.5                 MPC
M 309.46389              (2000.0)            P               Q
n   0.93894315     Peri.  116.58102     +0.81764383     -0.44495174
a   1.0328641      Node   271.83700     +0.30477842     +0.87289648
e   0.3258185      Incl.   21.44034     +0.48843494     +0.20017412
P   1.05           H   22.9           G   0.15           U   8
Residuals in seconds of arc
100701 704  0.3-  0.3+    100702 H36  0.2+  0.9-    100702 H21  0.4+  0.0
100701 704  0.2-  0.3-    100702 H36  2.0-  1.6+    100702 H21  0.4+  0.1-
100701 704  0.8-  0.4+    100702 H36  1.5+  0.2-    100703 J95  0.2+  0.5+
100701 704  0.3-  0.8-    100702 H36  0.5+  0.5+    100703 J95  0.2+  0.4-
100701 704  1.1+  0.0     100702 H21  0.4+  0.2-    100703 J95  0.5-  0.2-

Ephemeris:
2010 NB                  a,e,i = 1.03, 0.33, 21                  q = 0.6963
Date    TT    R. A. (2000) Decl.     Delta      r     Elong.  Phase     V
2010 07 03    17 41.19   +63 47.5    0.0616   1.021    92.3    84.3    19.8
2010 07 05    16 38.41   +71 47.3    0.0734   1.010    82.5    93.4    20.6
2010 07 07    15 15.92   +75 59.7    0.0866   0.998    75.4    99.7    21.2
2010 07 09    13 49.03   +77 24.1    0.101    0.987    70.2   104.3    21.7
2010 07 11    12 37.75   +77 09.0    0.115    0.976    66.1   107.7    22.2
2010 07 13    11 46.90   +76 10.2    0.130    0.964    62.8   110.3    22.6
2010 07 15    11 11.53   +74 57.6    0.145    0.952    60.1   112.2    22.9
2010 07 17    10 46.20   +73 43.3    0.161    0.941    57.9   113.8    23.2

Carl W. Hergenrother         (C) Copyright 2010 MPC           M.P.E.C. 2010-N06

Read MPEC 2010-N05 Read MPEC 2010-N07


MPEC number:

Enter an MPEC number in one of the following forms:

  • 1997-B01 (the full form)
  • J97B01 (the packed version of the full form)
  • B01 (the abbreviated form)

Valid HTML 4.01!